Regional Weather Roundup
Issued by NWS Grand Forks, ND

Home | Current Version | Previous Version | Graphics & Text | Print | Product List | Glossary On
Versions: 1 2 3 4 5 6 7 8 9 10 11 12 13 14 15 16 17 18 19 20 21 22 23 24 25 26 27 28 29 30 31 32 33 34 35 36 37 38 39 40 41 42 43 44 45 46 47 48 49 50
000
ASUS43 KFGF 280431
RWRFGF
PRAIRIE TO PINES  WEATHER ROUNDUP
NATIONAL WEATHER SERVICE EASTERN NORTH DAKOTA/GRAND FORKS ND
1100 PM CDT THU APR 27 2017

 **SATELLITE DATA USED TO AUGMENT SKY COVER AT AUTOMATED STATIONS**
 *****  WEATHER ACROSS EASTERN NORTH DAKOTA  *****

CITY           SKY/WX    TMP DP  RH WIND       PRES   REMARKS
GRAND FORKS    MOCLDY    34  29  82 NW6       29.82R
GRAND FRKS AFB FAIR      31  28  87 N6        29.82R
DEVILS LAKE    CLOUDY    39  29  67 NE7       29.84R
FARGO          CLOUDY    37  30  75 NW6       29.79R
WAHPETON ARPT  FAIR      36  30  80 NW3       29.80R
$$

 ***** WEATHER ACROSS CENTRAL AND WESTERN NORTH DAKOTA  *****

CITY           SKY/WX    TMP DP  RH WIND       PRES   REMARKS
BISMARCK       FAIR      39  25  57 NE8       29.82R
MINOT          FAIR      36  26  67 NE7       29.84R
JAMESTOWN      MOCLDY    40  29  64 N10       29.81R
MINOT AFB      FAIR      40  26  56 NE9       29.84R
GARRISON         N/A     35  23  61 NE6       29.82R
WILLISTON      FAIR      40  16  37 E8        29.83R
DICKINSON      FAIR      34  17  50 NE7       29.78R
HETTINGER      FAIR      33  24  69 NE8       29.79R
$$

 *****  OTHER AIRPORT OBSERVATIONS IN OUR AREA  *****

CITY           SKY/WX    TMP DP  RH WIND       PRES   REMARKS
WALHALLA       NOT AVBL
GRAFTON AIRPOR CLOUDY    32  28  86 NW5       29.84R
VALLEY CITY AR CLOUDY    39  32  75 NE10      29.83R
CANDO          NOT AVBL
CAVALIER APRT  FAIR      32  28  86 W5        29.81S
GWINNER        MOCLDY    39  34  81 MISG      29.80R
SHEYENNE NWR     N/A     41  31  66 N7        29.95S
ROLLA          CLOUDY    32  27  80 NW9       29.86R WCI  24
 ***** THE ABOVE OBSERVATIONS ARE NON NWS ARE NOT QUALITY
       CONTROLLED AND MAY MIS-REPORT RAIN FOR SNOW...
$$

  *****  WEATHER ACROSS NORTHERN MINNESOTA  *****

CITY           SKY/WX    TMP DP  RH WIND       PRES   REMARKS
FLAG ISLAND    MIX PCPN  30  27  86 N16       29.71R WCI  19
WARROAD        CLOUDY    30  27  86 NW10      29.74R WCI  21
ROSEAU         FLURRIES  30  27  86 NW9       29.75S WCI  22
HALLOCK        CLOUDY    36  30  80 N7        29.80S
THF RVR FALLS  FAIR      28  25  88 NW9       29.78R WCI  19
BAUDETTE       CLOUDY    30  23  75 N10       29.68R WCI  21
WASKISH        CLOUDY    28  25  86 NW9       29.70R WCI  20
CROOKSTON      FAIR      32  28  86 N6        29.81R
STEPHEN NDAWN    N/A     34  28  80 NW7         N/A
GREENBUSH NDAW   N/A     30  28  93 N9          N/A  WCI  22
$$
  *****  WEATHER ACROSS CENTRAL AND WEST MINNESOTA  *****

CITY           SKY/WX    TMP DP  RH WIND       PRES   REMARKS
FOSSTON        CLOUDY    28  25  86 NW12      29.77R WCI  18
BEMIDJI        CLOUDY    28  24  84 NW8       29.71R WCI  20
PARK RAPIDS    CLOUDY    31  22  69 W12       29.72R WCI  22
ELBOW LAKE     CLOUDY    35  31  86 NW6       29.78R
WADENA         CLOUDY    30  27  86 NW5       29.75R
DETROIT LAKES  CLOUDY    32  28  86 NW8       29.78R WCI  25
MOORHEAD       CLOUDY    36  30  80 NW8       29.81R
FERGUS FALLS   CLOUDY    34  28  80 W3        29.79R
MORRIS MN      CLOUDY    36  28  75 SW6       29.78R
STAPLES        CLOUDY    28  25  86 W8        29.74R WCI  20
$$
  *****  WEATHER ELSEWHERE ACROSS MINNESOTA  *****

CITY           SKY/WX    TMP DP  RH WIND       PRES   REMARKS
DULUTH         CLOUDY    28  22  78 W12       29.64R WCI  18
INTRNTL FALLS  CLOUDY    27  21  78 NW6       29.65R WCI  20
ELY            CLOUDY    25  21  86 W7        29.60R WCI  17
CLOQUET        CLOUDY    28  23  80 W8        29.67R WCI  20
WHEATON        CLOUDY    39  30  70 W8        29.81R
BRAINERD       FAIR      30  24  78 W9        29.72R WCI  22
HIBBING        CLOUDY    26  19  74 NW7       29.65R WCI  18
ALEXANDRIA     CLOUDY    34  27  75 NW9       29.77R
SAINT CLOUD    CLOUDY    33  26  75 W9        29.76R
MINNEAPOLIS    CLOUDY    35  24  64 W12       29.77S
$$

  *****  WEATHER ACROSS SOUTH DAKOTA  *****

CITY           SKY/WX    TMP DP  RH WIND       PRES   REMARKS
SIOUX FALLS    FAIR      35  29  78 NE9       29.83R
BROOKINGS      FAIR      32  27  81 CALM      29.82R
WATERTOWN      FAIR      33  28  81 S8        29.79R
HURON          FAIR      35  29  78 SE6       29.81R
SISSETON         N/A     38  32  79 W6        29.78R
ABERDEEN       FAIR      30  26  85 CALM      29.81R
MITCHELL       FAIR      36  29  75 E8        29.82R
PIERRE         FAIR      37  29  72 CALM      29.76R
MOBRIDGE       FAIR      43  22  43 NE14      29.77R
RAPID CITY     CLOUDY    41  31  67 E8        29.73R
$$

  *****  SOME WEATHER IN NEARBY STATES *****

CITY           SKY/WX    TMP DP  RH WIND       PRES   REMARKS
GLASGOW MT     CLOUDY    47  17  30 E13       29.78R
GREAT FALLS MT CLOUDY    39  35  86 CALM      29.85R
CHEYENNE WY    FAIR      38  25  59 NW3       29.64R
SCOTTSBLUFF NE CLOUDY    43  39  86 E10       29.61R
OMAHA NE       CLOUDY    50  36  58 CALM      29.77R
DES MOINES IA  CLOUDY    47  33  58 NE7       29.83R
DAVENPORT IA   FAIR      37  34  89 CALM      29.86R
CHICAGO IL     FAIR      43  35  73 SW9       29.85R
EAU CLAIRE WI  CLOUDY    33  23  66 W12       29.76R WCI  24
LA CROSSE WI   CLOUDY    38  28  67 W15       29.80R
$$

  *****  SOME NATIONAL WEATHER *****

CITY           SKY/WX    TMP DP  RH WIND       PRES   REMARKS
LA GUARDIA NY  CLOUDY    59  56  89 SE5       29.88F FOG
RALEIGH NC     MOCLDY    74  64  71 S13       29.92R
ATLANTA GA     FAIR      69  68  96 SW7       29.90S
NEW ORLEANS LA FAIR      74  69  85 SE10      29.81R
OKLAHOMA CITY  CLOUDY    60  51  72 SE15G23   29.60F
ALBUQUERQUE NM FAIR      57  30  35 N12       29.72R
SALT LAKE CITY MOCLDY    43  32  65 N7        29.85R
LOS ANGELES CA FAIR      75  40  28 N16G26    29.74S
BOISE ID       FAIR      43  29  57 NW10      29.95R
SEATTLE WA     CLOUDY    50  40  68 NE8       30.15R
$$

*** WEATHER ACROSS MANITOBA...SASKATCHEWAN AND ONTARIO ***
                ***ONTARIO***

CITY           SKY/WX    TMP DP  RH WIND       PRES   REMARKS
GERALDTON      LGT SNOW  28  27  93 W8        29.36R WCI  20
THUNDER BAY    CLOUDY    25  21  86 W10       29.55R WCI  15
SIOUX LOOKOUT  LGT SNOW  23  21  93 N9G18     29.57R DRFTSNOWWCI  13
TORONTO        PTCLDY    59  52  77 NW16      29.71R
BIG TROUT LK   LGT SNOW  19  18  93 N14G24    29.69F VSB 3/4 WCI   6
PICKLE LAKE    NOT AVBL
DRYDEN         LGT SNOW  25  23  93 N7        29.60S WCI  17
KENORA         LGT SNOW  27  25  93 N9        29.69R VSB 3/4 WCI  17
$$
                *** MANITOBA***

CITY           SKY/WX    TMP DP  RH WIND       PRES   REMARKS
BRANDON        CLEAR     27  19  74 N7        29.87R WCI  19
DAUPHIN        CLEAR     30  16  55 W3        29.91R
ISLAND LAKE    NOT AVBL
PILOT MOUND      N/A     34  25  69 N8          N/A
THE PAS        CLEAR     27  14  59 N2        29.96R
THOMPSON       MOCLDY    28   9  43 NE5       30.00S WCI  23
WINNIPEG       MOCLDY    36  25  64 N12       29.82R
LYNN LAKE      CLEAR     34   9  35 E3        30.00R
CHURCHILL      CLEAR     19  12  73 S9        30.07F WCI   9
GILLAM         PTCLDY    21   9  58 NE7       30.01F WCI  13
$$
                ***SASKATCHEWAN***

CITY           SKY/WX    TMP DP  RH WIND       PRES   REMARKS
ESTEVAN        PTCLDY    37  25  60 SE8       29.86R
KINDERSLEY     MOCLDY    34  32  93 NW6       29.83R
LLOYDMINSTER   CLOUDY    34  34 100 NE5       29.89R
PRINCE ALBERT  CLOUDY    34  16  47 E2        29.92R
REGINA         PTCLDY    41  12  30 E12       29.87R
YORKTON        CLEAR     32  19  59 E5        29.91R
N. BATTLEFORD  PTCLDY    37  25  60 NE10      29.90R
LA RONGE       PTCLDY    36  10  35 NE7       29.96R
SASKATOON      CLOUDY    45  14  29 E13G22    29.88R
SWIFT CURRENT  CLOUDY    39  36  87 SE6       29.82R
$$
NOTE: THESE ARE AUTOMATED STATIONS WITH LIMITED QUALITY CONTROL
      "FAIR" INDICATES FEW OR NO CLOUDS BELOW 12,000 FEET WITH NO
      SIGNIFICANT WEATHER AND/OR OBSTRUCTIONS TO VISIBILITY.
      SKY/WX - SKY CONDITION AND SIGNIFICANT WEATHER.
      TMP - AIR TEMPERATURE.    DP   - DEWPOINT TEMPERATURE.
      RH  - RELATIVE HUMIDITY.  PRES - PRESSURE.
      HX  - HEAT INDEX.         WCI  - WIND CHILL INDEX.
$



USA.gov is the U.S. government's official web portal to all federal, state and local government web resources and services.